TimeMST,TemperatureF,Dew PointF,Humidity,Sea Level PressureIn,VisibilityMPH,Wind Direction,Wind SpeedMPH,Gust SpeedMPH,PrecipitationIn,Events,Conditions,WindDirDegrees,DateUTC
12:51 AM,53.1,26.1,35,29.92,10.0,Calm,Calm,-,N/A,,Clear,0,2012-10-18 07:51:00
1:51 AM,51.1,28.9,43,29.94,10.0,Calm,Calm,-,N/A,,Clear,0,2012-10-18 08:51:00
2:51 AM,51.1,30.0,44,29.93,10.0,ESE,5.8,-,N/A,,Clear,110,2012-10-18 09:51:00
3:51 AM,52.0,27.0,38,29.93,10.0,East,9.2,-,N/A,,Clear,90,2012-10-18 10:51:00
4:51 AM,51.1,26.1,38,29.95,10.0,East,5.8,-,N/A,,Clear,80,2012-10-18 11:51:00
5:51 AM,52.0,25.0,35,29.97,10.0,East,10.4,-,N/A,,Clear,90,2012-10-18 12:51:00
6:51 AM,52.0,24.1,34,30.00,10.0,East,10.4,-,N/A,,Unknown,100,2012-10-18 13:51:00
7:51 AM,57.9,25.0,28,30.01,10.0,ESE,5.8,-,N/A,,Clear,110,2012-10-18 14:51:00
8:51 AM,64.9,19.0,17,30.02,10.0,NNE,4.6,-,N/A,,Clear,30,2012-10-18 15:51:00
9:51 AM,70.0,21.0,16,30.01,10.0,NNE,3.5,-,N/A,,Clear,20,2012-10-18 16:51:00
10:51 AM,73.0,17.1,12,30.00,10.0,NNE,8.1,-,N/A,,Clear,20,2012-10-18 17:51:00
11:51 AM,77.0,12.0,8,29.98,10.0,North,8.1,-,N/A,,Clear,350,2012-10-18 18:51:00
12:51 PM,79.0,9.0,7,29.97,10.0,NNW,6.9,-,N/A,,Clear,340,2012-10-18 19:51:00
1:51 PM,80.1,7.0,6,29.95,10.0,NNW,3.5,-,N/A,,Clear,330,2012-10-18 20:51:00
2:51 PM,82.0,7.0,6,29.93,10.0,North,6.9,-,N/A,,Clear,360,2012-10-18 21:51:00
3:51 PM,82.9,9.0,6,29.91,10.0,NNE,6.9,-,N/A,,Clear,30,2012-10-18 22:51:00
4:51 PM,80.1,10.0,7,29.91,10.0,North,6.9,-,N/A,,Clear,360,2012-10-18 23:51:00
5:51 PM,72.0,15.1,11,29.94,10.0,NNE,6.9,-,N/A,,Clear,30,2012-10-19 00:51:00
6:51 PM,63.0,17.1,17,29.95,10.0,East,8.1,-,N/A,,Clear,90,2012-10-19 01:51:00
7:51 PM,62.1,16.0,17,29.96,10.0,ESE,9.2,-,N/A,,Clear,120,2012-10-19 02:51:00
8:51 PM,60.1,16.0,18,29.95,10.0,ESE,8.1,-,N/A,,Clear,110,2012-10-19 03:51:00
9:51 PM,59.0,16.0,19,29.94,10.0,SE,9.2,-,N/A,,Clear,130,2012-10-19 04:51:00
10:51 PM,57.0,17.1,21,29.94,10.0,ESE,9.2,-,N/A,,Clear,110,2012-10-19 05:51:00
11:51 PM,59.0,17.1,20,29.93,10.0,SE,10.4,-,N/A,,Clear,130,2012-10-19 06:51:00